This demonstration page uses our WeatherBlox Daily Observations layout. Learn more.

Left ArrowRight Arrow

31.84235, -102.49876

Hourly Observations for May 16, 2021

Temp ( °F °C ) Dew Point ( °F °C ) Humidity (%) Winds ( mph kmh ) Pressure ( in mb ) Visibility ( mi km ) Precip ( " mm )
12:53 am 00:53 Mostly Clear 67 19.4 58 14.4 73 73 E 9 15 29.87 1011 10 16 0.00 0.00
1:53 am 01:53 Clear 66 18.9 59 15 78 78 SE 9 15 29.87 1011 10 16 0.00 0.00
2:53 am 02:53 Mostly Clear 65 18.3 61 16.1 87 87 SSE 8 13 29.86 1011 10 16 0.00 0.00
3:53 am 03:53 Mostly Clear 64 17.8 60 15.6 87 87 S 8 13 29.83 1010 10 16 0.00 0.00
4:53 am 04:53 Clear 63 17.2 59 15 87 87 SSW 13 20 29.81 1009 10 16 0.00 0.00
5:53 am 05:53 Clear 62 16.7 59 15 90 90 SSW 12 19 29.83 1010 10 16 0.00 0.00
6:53 am 06:53 Sunny 62 16.7 59 15 90 90 SSW 13 20 29.84 1010 10 16 0.00 0.00
7:53 am 07:53 Sunny 64 17.8 59 15 84 84 SSW 15 24 29.85 1011 10 16 0.00 0.00
8:43 am 08:43 Mostly Cloudy 67 19.4 60 15.6 79 79 SSW 18 30 29.87 1011 10 16 0.00 0.00
8:53 am 08:53 Mostly Cloudy 67 19.4 60 15.6 79 79 SSW 17 28 29.86 1011 10 16 0.00 0.00
9:12 am 09:12 Partly Cloudy 69 20.6 60 15.6 73 73 SSW 17 28 29.85 1011 10 16 0.00 0.00
9:53 am 09:53 Sunny 71 21.7 60 15.6 68 68 S 18 30 29.88 1012 10 16 0.00 0.00
10:53 am 10:53 Sunny 75 23.9 60 15.6 60 60 S 14 22 29.87 1011 10 16 0.00 0.00
11:53 am 11:53 Sunny 78 25.6 60 15.6 54 54 S 15 24 29.84 1010 10 16 0.00 0.00
12:53 pm 12:53 Sunny 82 27.8 59 15 46 46 S 10 17 29.80 1009 10 16 0.00 0.00
1:53 pm 13:53 Sunny 85 29.4 57 13.9 39 39 VRB 6 9 29.77 1008 10 16 0.00 0.00
2:53 pm 14:53 Sunny 87 30.6 54 12.2 32 32 S 8 13 29.75 1008 10 16 0.00 0.00
3:53 pm 15:53 Mostly Sunny 89 31.7 54 12.2 30 30 VRB 7 11 29.72 1006 10 16 0.00 0.00
4:53 pm 16:53 Sunny 91 32.8 49 9.4 24 24 S 9 15 29.70 1006 10 16 0.00 0.00
5:53 pm 17:53 Mostly Sunny 91 32.8 44 6.7 20 20 VRB 5 7 29.68 1005 10 16 0.00 0.00
6:53 pm 18:53 Mostly Sunny 92 33.3 40 4.4 16 16 undefined N/A 29.66 1005 10 16 0.00 0.00
7:53 pm 19:53 Sunny 90 32.2 35 1.7 14 14 WSW 13 20 29.65 1004 10 16 0.00 0.00
8:53 pm 20:53 Clear 85 29.4 39 3.9 20 20 S 16 26 29.67 1005 10 16 0.00 0.00
9:53 pm 21:53 Clear 80 26.7 61 16.1 52 52 S 24 39 29.70 1006 10 16 0.00 0.00
10:53 pm 22:53 Clear 78 25.6 62 16.7 58 58 S 21 33 29.72 1006 10 16 0.00 0.00
11:53 pm 23:53 Clear 76 24.4 62 16.7 62 62 S 20 31 29.72 1006 10 16 0.00 0.00

Powered by AerisWeather